QPF
0.11 0.00 0.00 0.00 0.00 0.00 0.00 0.00 0.00 0.00 0.00 0.00 0.00 0.00 0.00 0.00 0.00 0.00 0.00 0.00 0.00 0.00 0.00 0.00 0.00 0.00 0.00 0.00 0.00 0.00 0.00 0.00 0.00 0.00 0.00 0.00 0.00 0.00 0.00 0.00 0.00 0.00 0.00
0.09 0.03 0.00 0.00 0.00 0.00 0.00 0.00 0.00 0.00 0.00 0.00 0.00 0.00 0.00 0.00 0.00 0.00 0.00 0.00 0.00 0.00 0.00 0.00 0.00 0.00 0.00 0.00 0.00 0.00 0.00 0.00 0.00 0.00 0.00 0.00 0.00 0.00 0.00 0.00 0.00 0.00 0.00
0.35 0.41 0.11 0.00 0.00 0.00 0.00 0.00 0.00 0.00 0.00 0.00 0.00 0.00 0.00 0.00 0.00 0.00 0.00 0.00 0.00 0.00 0.00 0.00 0.00 0.00 0.00 0.00 0.00 0.00 0.00 0.00 0.00 0.00 0.00 0.00 0.00 0.00 0.00 0.00 0.00 0.00 0.00
1.13 0.77 0.35 0.04 0.02 0.01 0.00 0.00 0.00 0.00 0.00 0.00 0.00 0.00 0.00 0.00 0.00 0.00 0.00 0.00 0.00 0.00 0.00 0.00 0.00 0.00 0.00 0.00 0.00 0.00 0.00 0.00 0.00 0.00 0.00 0.00 0.00 0.00 0.00 0.00 0.00 0.00 0.00
0.64 0.79 0.64 0.25 0.13 0.05 0.01 0.00 0.00 0.00 0.00 0.00 0.00 0.00 0.00 0.00 0.00 0.00 0.00 0.00 0.00 0.00 0.00 0.00 0.00 0.00 0.00 0.00 0.00 0.00 0.00 0.00 0.00 0.00 0.00 0.00 0.00 0.00 0.00 0.00 0.00 0.00 0.00
0.41 0.53 0.85 0.34 0.17 0.05 0.01 0.00 0.00 0.00 0.00 0.00 0.00 0.00 0.00 0.00 0.00 0.00 0.00 0.00 0.00 0.00 0.00 0.00 0.00 0.00 0.00 0.00 0.00 0.00 0.00 0.00 0.00 0.00 0.00 0.00 0.00 0.00 0.00 0.00 0.00 0.00 0.00
0.21 0.29 0.60 0.25 0.02 0.01 0.00 0.00 0.00 0.00 0.00 0.00 0.00 0.00 0.00 0.00 0.00 0.00 0.00 0.00 0.00 0.00 0.00 0.00 0.00 0.00 0.00 0.00 0.00 0.00 0.00 0.00 0.00 0.00 0.00 0.00 0.00 0.00 0.00 0.00 0.00 0.00 0.00
0.56 0.61 0.75 0.23 0.05 0.12 0.03 0.00 0.00 0.00 0.00 0.00 0.00 0.00 0.00 0.00 0.00 0.00 0.00 0.00 0.00 0.00 0.00 0.00 0.00 0.00 0.00 0.00 0.00 0.00 0.00 0.00 0.00 0.00 0.00 0.00 0.00 0.00 0.00 0.00 0.00 0.00 0.00
1.10 1.79 1.09 0.51 0.36 0.21 0.07 0.01 0.00 0.00 0.00 0.00 0.00 0.00 0.00 0.00 0.00 0.00 0.00 0.00 0.00 0.00 0.00 0.00 0.00 0.00 0.00 0.00 0.00 0.00 0.00 0.00 0.00 0.00 0.00 0.00 0.00 0.00 0.00 0.00 0.00 0.00 0.00
1.06 2.58 2.70 1.56 0.40 0.15 0.07 0.01 0.00 0.00 0.00 0.00 0.00 0.00 0.00 0.00 0.00 0.00 0.00 0.00 0.00 0.00 0.00 0.00 0.00 0.00 0.00 0.00 0.00 0.00 0.00 0.00 0.00 0.00 0.00 0.00 0.00 0.00 0.00 0.00 0.00 0.00 0.00
0.20 0.69 1.82 2.52 1.38 0.20 0.08 0.02 0.00 0.00 0.00 0.00 0.00 0.00 0.00 0.00 0.00 0.00 0.00 0.00 0.00 0.00 0.00 0.00 0.00 0.00 0.00 0.00 0.00 0.00 0.00 0.00 0.00 0.00 0.00 0.00 0.00 0.00 0.00 0.00 0.00 0.00 0.00
0.06 0.10 0.45 0.84 1.45 0.51 0.06 0.00 0.00 0.00 0.00 0.00 0.00 0.00 0.00 0.00 0.00 0.00 0.00 0.00 0.00 0.00 0.00 0.00 0.00 0.00 0.00 0.00 0.00 0.00 0.00 0.00 0.00 0.00 0.00 0.00 0.00 0.00 0.00 0.00 0.00 0.00 0.00
0.03 0.04 0.05 0.08 0.18 0.19 0.05 0.02 0.00 0.00 0.00 0.00 0.00 0.00 0.00 0.00 0.00 0.00 0.00 0.00 0.00 0.00 0.00 0.00 0.00 0.00 0.00 0.00 0.00 0.00 0.00 0.00 0.00 0.00 0.00 0.00 0.00 0.00 0.00 0.00 0.00 0.00 0.00
0.01 0.01 0.01 0.00 0.01 0.00 0.00 0.00 0.01 0.01 0.00 0.01 0.00 0.00 0.00 0.00 0.00 0.00 0.00 0.00 0.00 0.00 0.00 0.00 0.00 0.00 0.00 0.00 0.00 0.00 0.00 0.00 0.00 0.00 0.00 0.00 0.00 0.00 0.00 0.00 0.00 0.00 0.00
0.07 0.02 0.01 0.03 0.05 0.01 0.02 0.01 0.00 0.01 0.00 0.00 0.00 0.02 0.00 0.00 0.00 0.00 0.00 0.00 0.00 0.00 0.00 0.00 0.00 0.00 0.00 0.00 0.00 0.00 0.00 0.00 0.00 0.00 0.00 0.00 0.00 0.00 0.00 0.00 0.00 0.00 0.00
0.05 0.01 0.01 0.05 0.09 0.08 0.05 0.02 0.01 0.00 0.00 0.01 0.02 0.04 0.02 0.00 0.00 0.00 0.00 0.00 0.00 0.00 0.00 0.00 0.00 0.00 0.00 0.00 0.00 0.00 0.00 0.00 0.00 0.00 0.00 0.00 0.00 0.00 0.00 0.00 0.00 0.00 0.00
0.05 0.06 0.03 0.02 0.02 0.03 0.05 0.03 0.02 0.01 0.00 0.01 0.03 0.04 0.03 0.01 0.00 0.01 0.03 0.00 0.00 0.00 0.00 0.00 0.00 0.00 0.00 0.00 0.00 0.00 0.00 0.00 0.00 0.00 0.00 0.00 0.00 0.00 0.00 0.00 0.00 0.00 0.00
0.01 0.04 0.04 0.03 0.04 0.04 0.03 0.02 0.01 0.02 0.03 0.02 0.02 0.03 0.03 0.02 0.05 0.07 0.05 0.01 0.00 0.00 0.00 0.00 0.00 0.00 0.00 0.00 0.00 0.00 0.00 0.00 0.00 0.00 0.00 0.00 0.00 0.00 0.00 0.00 0.00 0.00 0.00
0.01 0.00 0.01 0.01 0.02 0.04 0.04 0.03 0.02 0.01 0.01 0.00 0.00 0.00 0.01 0.07 0.06 0.02 0.02 0.01 0.01 0.00 0.00 0.00 0.00 0.00 0.00 0.00 0.00 0.00 0.00 0.00 0.00 0.00 0.00 0.00 0.00 0.00 0.00 0.00 0.00 0.00 0.00
0.00 0.00 0.00 0.00 0.00 0.00 0.00 0.00 0.00 0.00 0.00 0.00 0.01 0.01 0.03 0.11 0.16 0.09 0.07 0.03 0.01 0.00 0.00 0.00 0.00 0.00 0.00 0.00 0.00 0.00 0.00 0.00 0.00 0.00 0.00 0.00 0.00 0.00 0.00 0.00 0.00 0.00 0.00
0.00 0.00 0.00 0.00 0.00 0.00 0.00 0.00 0.00 0.00 0.01 0.00 0.00 0.01 0.03 0.08 0.09 0.10 0.03 0.03 0.00 0.00 0.00 0.00 0.00 0.00 0.00 0.00 0.00 0.00 0.00 0.00 0.00 0.00 0.00 0.00 0.00 0.00 0.00 0.00 0.00 0.00 0.00
0.00 0.00 0.00 0.00 0.00 0.00 0.00 0.00 0.00 0.00 0.00 0.00 0.00 0.02 0.05 0.10 0.10 0.05 0.00 0.01 0.00 0.00 0.00 0.00 0.00 0.00 0.00 0.00 0.00 0.00 0.00 0.00 0.00 0.00 0.00 0.00 0.00 0.00 0.00 0.00 0.00 0.00 0.00
0.00 0.00 0.00 0.00 0.00 0.00 0.00 0.00 0.00 0.00 0.00 0.02 0.02 0.06 0.06 0.14 0.20 0.17 0.02 0.00 0.00 0.00 0.00 0.00 0.00 0.00 0.00 0.00 0.00 0.00 0.00 0.00 0.00 0.00 0.00 0.00 0.00 0.00 0.00 0.00 0.00 0.00 0.00
0.00 0.00 0.00 0.00 0.00 0.00 0.00 0.00 0.00 0.00 0.00 0.00 0.00 0.00 0.03 0.04 0.02 0.02 0.00 0.00 0.00 0.00 0.00 0.00 0.00 0.00 0.00 0.00 0.00 0.00 0.00 0.00 0.00 0.00 0.00 0.00 0.00 0.00 0.00 0.00 0.00 0.00 0.00
0.00 0.00 0.00 0.00 0.00 0.00 0.00 0.00 0.00 0.00 0.00 0.00 0.00 0.00 0.00 0.02 0.01 0.00 0.01 0.00 0.00 0.00 0.00 0.00 0.00 0.00 0.00 0.00 0.00 0.00 0.00 0.00 0.00 0.00 0.00 0.00 0.00 0.00 0.00 0.00 0.00 0.00 0.00
0.00 0.00 0.00 0.00 0.00 0.00 0.00 0.00 0.00 0.00 0.00 0.00 0.00 0.00 0.00 0.00 0.00 0.01 0.01 0.00 0.00 0.00 0.00 0.00 0.00 0.00 0.00 0.00 0.00 0.00 0.00 0.00 0.00 0.00 0.00 0.00 0.00 0.00 0.00 0.00 0.00 0.00 0.00
MSLP
1011.28 1011.51 1012.17 1011.04 1011.98 1012.11 1012.12 1012.62 1012.78 1012.97 1013.15 1013.58 1014.21 1014.68 1015.09 1015.36 1015.83 1016.18 1016.63 1017.06 1017.66 1018.00 1018.39 1018.63 1018.72 1018.74 1019.07 1019.47 1019.76 1020.12 1020.42 1020.52 1020.69 1020.92 1021.14 1021.19 1021.33 1021.35 1021.64 1021.57 1021.50 1021.46 1021.37
1011.80 1011.86 1012.09 1011.20 1011.60 1011.87 1012.23 1012.44 1012.98 1013.55 1014.01 1013.88 1014.49 1014.91 1015.50 1015.93 1016.11 1016.65 1017.10 1017.36 1017.81 1018.21 1018.58 1018.80 1019.03 1019.33 1019.60 1020.08 1020.38 1020.58 1020.93 1021.05 1021.19 1021.26 1021.47 1021.77 1021.98 1022.13 1022.22 1022.13 1022.05 1022.08 1022.01
1011.48 1012.95 1012.80 1012.37 1012.14 1012.67 1012.94 1013.19 1013.74 1014.17 1014.67 1015.00 1014.83 1015.23 1015.68 1016.26 1016.43 1016.98 1017.41 1017.76 1018.20 1018.44 1018.96 1019.29 1019.50 1019.86 1020.11 1020.47 1020.90 1021.13 1021.10 1021.36 1021.64 1021.77 1021.89 1022.39 1022.55 1022.55 1022.70 1022.72 1022.66 1022.61 1022.50
1008.27 1009.74 1011.17 1012.92 1013.25 1013.81 1013.61 1013.56 1014.34 1014.84 1015.35 1015.85 1015.56 1016.12 1016.19 1016.43 1016.78 1017.17 1017.64 1018.17 1018.63 1018.89 1019.42 1019.60 1019.85 1020.19 1020.55 1020.97 1021.15 1021.43 1021.47 1021.56 1021.58 1022.01 1022.19 1022.67 1022.95 1022.96 1023.08 1023.12 1023.04 1023.00 1022.95
1008.22 1007.83 1011.64 1012.89 1013.18 1013.92 1013.87 1013.67 1014.14 1014.89 1015.36 1015.88 1016.27 1016.59 1016.64 1016.91 1017.21 1017.54 1018.04 1018.52 1018.92 1019.27 1019.76 1019.92 1020.22 1020.56 1020.80 1021.18 1021.30 1021.68 1021.52 1021.86 1022.08 1022.21 1022.61 1023.21 1023.30 1023.44 1023.52 1023.58 1023.58 1023.63 1023.43
1007.98 1007.32 1011.50 1012.91 1012.64 1013.55 1013.66 1013.79 1014.21 1014.44 1015.26 1015.80 1015.97 1016.78 1016.96 1017.40 1017.56 1018.00 1018.41 1018.83 1019.29 1019.75 1020.26 1020.42 1020.58 1020.75 1020.98 1021.24 1021.32 1021.74 1021.42 1021.82 1022.59 1022.78 1023.13 1023.43 1023.67 1023.79 1023.92 1023.89 1023.79 1023.92 1024.06
1009.07 1008.81 1007.44 1010.55 1011.83 1013.02 1013.46 1014.07 1014.59 1015.00 1015.47 1015.81 1016.19 1016.68 1017.13 1017.59 1017.90 1018.15 1018.72 1019.14 1019.72 1020.12 1020.56 1020.77 1020.95 1021.12 1021.30 1021.61 1021.68 1021.98 1021.95 1022.06 1022.83 1023.22 1023.54 1023.77 1023.95 1023.98 1024.10 1024.27 1024.35 1024.44 1024.37
1011.87 1010.91 1008.51 1009.84 1011.40 1012.34 1013.37 1014.01 1014.56 1015.11 1015.82 1016.18 1016.55 1017.06 1017.48 1017.68 1018.21 1018.51 1018.93 1019.46 1020.09 1020.58 1020.76 1021.09 1021.40 1021.44 1021.56 1021.80 1021.80 1021.97 1022.62 1022.81 1023.17 1023.45 1023.79 1024.00 1024.16 1024.31 1024.45 1024.66 1024.76 1024.73 1024.75
1010.09 1009.76 1011.75 1010.80 1010.87 1012.13 1013.23 1014.03 1014.61 1015.36 1016.06 1016.36 1016.70 1017.40 1017.95 1018.30 1018.59 1018.94 1019.48 1019.98 1020.41 1020.72 1021.05 1021.34 1021.75 1021.89 1021.95 1022.10 1022.05 1022.40 1023.00 1023.08 1023.43 1023.78 1023.99 1024.24 1024.43 1024.53 1024.69 1024.85 1024.95 1024.91 1024.96
1010.28 1011.59 1011.28 1009.46 1011.17 1012.52 1013.48 1014.24 1014.92 1015.50 1016.17 1016.65 1017.09 1017.79 1018.43 1018.69 1019.04 1019.41 1019.91 1020.29 1020.55 1021.00 1021.32 1021.54 1021.85 1022.21 1022.34 1022.34 1022.52 1022.54 1023.13 1023.57 1024.03 1024.15 1024.32 1024.37 1024.62 1024.83 1024.90 1025.06 1025.12 1025.27 1025.34
1011.14 1010.26 1012.07 1011.09 1010.11 1012.28 1013.67 1014.73 1015.39 1015.77 1016.45 1017.05 1017.56 1018.17 1018.75 1019.26 1019.53 1019.93 1020.23 1020.55 1020.97 1021.24 1021.60 1021.64 1022.20 1022.30 1022.53 1022.70 1023.07 1022.99 1023.53 1024.07 1024.19 1024.43 1024.39 1024.54 1024.67 1024.96 1025.08 1025.28 1025.40 1025.39 1025.78
1010.99 1010.54 1012.79 1012.95 1012.60 1013.05 1014.03 1014.91 1015.68 1015.97 1016.98 1017.63 1018.01 1018.55 1018.90 1019.30 1019.86 1020.11 1020.50 1020.92 1021.32 1021.67 1021.68 1022.40 1022.27 1022.70 1022.89 1023.24 1023.47 1023.53 1023.92 1024.44 1024.57 1024.73 1024.79 1024.72 1024.70 1025.07 1025.30 1025.49 1025.74 1025.88 1026.00
1011.94 1012.29 1012.71 1013.27 1013.84 1013.91 1015.11 1015.33 1015.79 1015.95 1017.08 1017.82 1018.02 1018.93 1019.17 1020.01 1020.50 1020.67 1020.60 1021.45 1021.80 1021.93 1022.36 1022.66 1022.77 1023.15 1023.17 1023.68 1023.84 1024.00 1024.34 1024.67 1024.81 1025.02 1024.83 1024.88 1024.86 1025.12 1025.44 1025.74 1026.11 1026.15 1026.19
1012.85 1013.46 1013.83 1014.45 1015.18 1015.78 1015.77 1016.00 1015.82 1016.12 1016.66 1017.92 1018.31 1019.00 1019.72 1020.16 1021.07 1020.71 1021.01 1021.68 1021.88 1022.23 1022.67 1023.03 1023.12 1023.36 1023.55 1023.90 1024.02 1024.18 1024.43 1025.00 1025.07 1025.34 1025.11 1025.10 1025.09 1025.16 1025.57 1026.02 1026.29 1026.53 1026.55
1013.26 1013.69 1014.43 1015.04 1015.58 1015.91 1015.46 1015.96 1016.47 1016.87 1016.43 1017.85 1018.70 1019.23 1019.76 1020.08 1021.08 1020.58 1021.35 1021.70 1022.08 1022.31 1022.81 1023.01 1023.01 1023.47 1023.89 1024.13 1024.34 1024.44 1024.66 1025.17 1025.31 1025.69 1025.73 1025.18 1025.27 1025.53 1025.61 1026.01 1026.38 1026.75 1026.91
1013.58 1013.94 1014.79 1015.38 1015.57 1015.58 1016.12 1016.54 1017.03 1017.55 1017.95 1018.05 1018.72 1019.21 1019.16 1020.46 1020.51 1020.84 1021.17 1021.64 1021.96 1022.53 1022.74 1022.65 1023.16 1023.60 1024.13 1024.35 1024.56 1024.51 1024.97 1025.23 1025.58 1025.80 1025.86 1025.73 1025.65 1025.82 1026.06 1026.18 1026.39 1026.62 1026.95
1013.97 1014.35 1014.68 1015.21 1015.69 1016.31 1016.64 1017.07 1017.44 1017.70 1018.26 1018.51 1018.78 1019.04 1019.70 1020.23 1020.17 1020.54 1021.20 1021.44 1021.76 1022.13 1022.43 1022.80 1023.34 1023.73 1024.34 1024.43 1024.60 1024.73 1025.04 1025.23 1025.35 1025.70 1025.92 1026.08 1026.04 1026.24 1026.33 1026.47 1026.68 1026.92 1027.09
1014.67 1014.83 1015.24 1015.78 1016.41 1016.87 1017.27 1017.42 1017.90 1018.65 1018.38 1018.77 1018.73 1019.81 1019.86 1019.73 1020.26 1020.84 1021.19 1021.52 1021.82 1022.18 1022.57 1023.04 1023.51 1024.01 1024.41 1024.65 1024.88 1025.11 1025.25 1025.26 1025.18 1025.41 1025.74 1025.95 1026.17 1026.31 1026.56 1026.62 1026.80 1026.89 1027.08
1014.62 1015.22 1015.85 1016.17 1016.56 1017.03 1017.33 1018.16 1018.22 1018.28 1018.55 1019.10 1019.55 1019.60 1019.41 1019.77 1020.23 1020.75 1021.20 1021.59 1021.85 1022.23 1022.49 1022.77 1023.43 1023.84 1024.33 1024.70 1024.91 1025.03 1024.93 1025.10 1025.10 1025.20 1025.65 1025.80 1026.00 1026.08 1026.34 1026.53 1026.70 1026.77 1026.99
1014.98 1015.25 1015.68 1016.21 1016.74 1017.28 1017.86 1018.48 1018.45 1018.95 1018.88 1018.99 1019.33 1018.79 1018.58 1019.58 1020.00 1020.65 1021.07 1021.37 1021.77 1022.04 1022.51 1022.85 1023.42 1023.85 1024.02 1024.46 1024.77 1024.93 1024.96 1024.92 1025.04 1025.44 1025.51 1025.44 1025.75 1025.99 1026.09 1026.34 1026.57 1026.54 1026.69
1015.65 1015.58 1015.74 1016.41 1016.90 1017.51 1018.06 1018.63 1018.61 1018.52 1018.55 1018.45 1018.28 1018.70 1019.12 1019.45 1019.91 1020.46 1020.74 1021.35 1021.47 1021.93 1022.32 1022.87 1023.40 1023.84 1024.32 1024.41 1024.77 1025.24 1025.24 1025.09 1025.15 1025.27 1025.35 1025.40 1025.54 1025.72 1026.04 1026.27 1026.41 1026.39 1026.47
1015.24 1015.78 1016.19 1016.48 1016.96 1017.33 1017.67 1017.97 1018.09 1017.98 1018.06 1018.43 1018.66 1018.92 1019.05 1019.51 1019.75 1020.13 1020.39 1020.83 1021.00 1021.69 1022.30 1022.85 1023.07 1023.87 1024.26 1024.34 1025.13 1025.59 1025.57 1025.58 1025.37 1025.29 1025.27 1025.27 1025.51 1025.64 1025.67 1025.75 1025.87 1026.14 1026.31
1014.90 1014.98 1015.26 1015.60 1016.26 1016.79 1016.91 1017.71 1017.80 1017.91 1017.89 1018.20 1018.40 1018.75 1018.68 1018.97 1019.30 1019.46 1019.85 1020.16 1020.54 1021.13 1021.82 1022.26 1022.80 1023.50 1024.17 1024.45 1024.39 1024.87 1025.51 1025.83 1025.70 1025.54 1025.28 1025.43 1025.63 1025.77 1025.61 1025.38 1025.52 1025.69 1025.76
1013.90 1014.33 1014.57 1015.04 1015.50 1015.70 1016.24 1016.64 1016.95 1016.82 1017.13 1017.54 1017.85 1018.10 1018.36 1018.52 1018.83 1019.17 1019.29 1019.52 1019.77 1020.60 1021.14 1021.57 1022.14 1023.10 1023.63 1024.31 1024.62 1024.43 1024.49 1025.04 1025.91 1026.46 1025.84 1025.58 1025.69 1025.91 1025.76 1025.65 1025.60 1025.53 1025.51
1013.20 1013.68 1013.94 1014.36 1014.64 1014.92 1015.30 1015.57 1015.90 1016.11 1016.41 1016.77 1017.35 1017.72 1018.08 1018.41 1018.47 1018.75 1019.04 1019.27 1019.70 1020.26 1020.74 1021.18 1021.72 1022.43 1023.11 1023.93 1024.26 1024.36 1024.59 1025.02 1025.45 1026.03 1026.45 1026.09 1025.88 1025.79 1025.61 1025.67 1025.82 1025.71 1025.51
1012.39 1012.85 1013.12 1013.43 1013.62 1013.98 1014.24 1014.54 1014.99 1015.22 1015.68 1016.26 1016.91 1017.35 1017.85 1018.15 1018.48 1018.67 1018.91 1019.04 1019.53 1019.86 1020.37 1020.63 1021.34 1021.97 1022.73 1023.37 1023.84 1024.13 1024.44 1024.91 1025.35 1025.76 1026.38 1026.15 1026.05 1025.51 1025.43 1025.48 1025.72 1025.61 1025.33
Thickness
5712 5713 5709 5731 5725 5730 5734 5732 5732 5732 5732 5728 5723 5719 5715 5714 5710 5708 5703 5699 5694 5691 5687 5686 5685 5686 5683 5680 5678 5674 5671 5671 5669 5666 5664 5663 5662 5662 5660 5660 5661 5660 5660
5702 5706 5708 5720 5729 5730 5729 5730 5726 5723 5720 5722 5717 5714 5709 5706 5706 5701 5696 5694 5690 5686 5683 5682 5680 5678 5677 5672 5670 5669 5665 5663 5661 5662 5660 5656 5654 5652 5651 5652 5653 5652 5652
5705 5693 5690 5703 5714 5716 5715 5714 5710 5709 5708 5706 5710 5707 5705 5700 5700 5694 5690 5687 5682 5681 5677 5674 5674 5671 5670 5667 5664 5662 5663 5659 5657 5655 5655 5650 5647 5647 5645 5644 5644 5644 5644
5729 5710 5681 5688 5693 5695 5702 5705 5699 5696 5694 5692 5697 5694 5695 5694 5691 5689 5685 5680 5676 5674 5670 5669 5668 5666 5664 5661 5661 5658 5659 5655 5653 5651 5649 5644 5641 5641 5640 5638 5640 5639 5639
5723 5728 5695 5681 5687 5687 5694 5700 5698 5693 5691 5688 5685 5683 5686 5684 5682 5681 5676 5673 5670 5668 5664 5663 5662 5660 5660 5657 5656 5653 5655 5651 5648 5647 5645 5638 5637 5635 5634 5634 5634 5632 5633
5714 5723 5675 5676 5685 5684 5691 5694 5694 5695 5689 5686 5686 5678 5679 5676 5675 5671 5669 5666 5663 5660 5656 5656 5656 5657 5655 5653 5653 5648 5654 5647 5643 5643 5638 5634 5631 5630 5628 5629 5630 5628 5625
5701 5698 5680 5686 5686 5682 5685 5683 5683 5684 5684 5684 5682 5680 5676 5672 5670 5668 5662 5660 5656 5654 5651 5650 5650 5650 5650 5647 5647 5643 5648 5645 5634 5634 5631 5630 5627 5626 5625 5623 5622 5621 5622
5660 5668 5683 5684 5683 5682 5680 5680 5680 5680 5676 5676 5674 5673 5669 5668 5663 5661 5658 5654 5650 5647 5647 5645 5643 5644 5644 5642 5642 5639 5640 5636 5632 5631 5627 5626 5622 5620 5619 5617 5616 5616 5616
5661 5667 5668 5680 5683 5678 5675 5675 5676 5674 5670 5668 5667 5663 5659 5659 5658 5655 5650 5647 5644 5642 5639 5638 5637 5637 5636 5637 5638 5634 5633 5631 5628 5625 5623 5621 5618 5617 5616 5614 5613 5613 5612
5666 5653 5662 5665 5670 5668 5667 5668 5668 5666 5663 5662 5660 5656 5652 5653 5652 5647 5643 5640 5638 5635 5632 5631 5632 5628 5630 5632 5631 5631 5630 5625 5623 5622 5620 5617 5613 5612 5612 5610 5610 5607 5605
5661 5669 5655 5653 5653 5653 5658 5660 5658 5657 5655 5654 5653 5650 5647 5644 5643 5640 5636 5634 5630 5628 5625 5627 5625 5627 5626 5626 5623 5625 5625 5619 5619 5618 5617 5613 5611 5607 5607 5605 5603 5602 5596
5663 5669 5636 5642 5653 5649 5650 5653 5651 5652 5647 5645 5644 5641 5641 5637 5633 5631 5629 5626 5622 5619 5620 5617 5622 5622 5620 5620 5618 5618 5619 5613 5613 5612 5610 5609 5608 5603 5601 5598 5594 5592 5590
5655 5650 5649 5648 5641 5645 5642 5647 5648 5649 5641 5638 5637 5632 5631 5623 5621 5622 5624 5616 5613 5612 5611 5612 5615 5615 5616 5613 5612 5612 5611 5608 5607 5606 5606 5604 5602 5598 5595 5591 5586 5584 5583
5651 5641 5640 5632 5631 5629 5634 5639 5643 5641 5639 5630 5629 5625 5621 5619 5611 5616 5615 5609 5606 5605 5607 5607 5609 5609 5609 5607 5606 5606 5605 5603 5603 5599 5599 5597 5595 5591 5587 5582 5578 5574 5574
5649 5646 5636 5634 5632 5628 5635 5635 5634 5630 5635 5626 5621 5618 5615 5613 5605 5611 5606 5603 5601 5600 5602 5605 5607 5605 5603 5602 5601 5601 5599 5596 5596 5591 5590 5592 5588 5583 5582 5575 5571 5566 5562
5643 5643 5635 5630 5628 5629 5629 5627 5623 5622 5619 5619 5616 5613 5615 5605 5605 5603 5602 5600 5598 5596 5599 5604 5603 5601 5597 5597 5595 5597 5592 5590 5588 5585 5583 5582 5580 5576 5571 5568 5564 5560 5555
5633 5631 5630 5627 5624 5621 5619 5615 5614 5612 5611 5611 5611 5609 5604 5600 5601 5600 5596 5599 5599 5598 5600 5599 5597 5597 5593 5593 5592 5591 5588 5585 5582 5579 5577 5574 5572 5566 5564 5560 5556 5552 5547
5620 5623 5621 5619 5614 5610 5608 5608 5605 5602 5607 5605 5607 5599 5599 5601 5597 5596 5596 5599 5597 5598 5597 5597 5594 5592 5590 5588 5587 5584 5581 5578 5578 5575 5573 5570 5566 5562 5556 5554 5549 5546 5541
5617 5614 5612 5613 5610 5607 5604 5598 5600 5600 5600 5596 5596 5596 5598 5596 5597 5597 5596 5596 5595 5596 5597 5596 5592 5590 5588 5585 5582 5579 5578 5576 5573 5570 5565 5564 5561 5557 5552 5547 5542 5539 5532
5611 5611 5610 5607 5604 5598 5595 5589 5591 5589 5591 5593 5594 5598 5603 5599 5599 5597 5597 5598 5595 5595 5593 5591 5589 5587 5586 5580 5579 5574 5572 5571 5569 5564 5560 5558 5553 5550 5546 5541 5535 5532 5526
5601 5609 5608 5603 5600 5593 5590 5584 5587 5591 5593 5595 5599 5600 5601 5600 5598 5598 5597 5595 5595 5593 5591 5588 5585 5583 5578 5575 5571 5566 5565 5566 5562 5558 5554 5551 5546 5542 5537 5532 5528 5525 5519
5607 5604 5601 5599 5597 5595 5596 5595 5596 5599 5601 5597 5599 5600 5601 5597 5599 5598 5598 5596 5596 5593 5588 5584 5583 5577 5572 5569 5561 5555 5555 5552 5552 5552 5548 5544 5539 5532 5528 5524 5520 5516 5510
5611 5611 5611 5611 5606 5604 5606 5599 5600 5600 5602 5601 5602 5600 5602 5601 5600 5600 5599 5598 5598 5595 5588 5585 5580 5573 5566 5562 5561 5553 5546 5541 5539 5539 5539 5534 5529 5523 5519 5515 5510 5504 5499
5621 5618 5616 5613 5610 5613 5610 5606 5604 5608 5607 5604 5601 5602 5602 5603 5602 5600 5600 5598 5598 5594 5588 5584 5578 5569 5563 5556 5551 5551 5548 5541 5528 5522 5523 5520 5517 5509 5505 5501 5497 5492 5487
5627 5624 5624 5621 5620 5619 5617 5616 5613 5611 5611 5609 5605 5603 5602 5600 5601 5599 5598 5597 5593 5588 5585 5580 5573 5565 5558 5551 5546 5543 5539 5531 5525 5516 5508 5505 5503 5497 5492 5486 5479 5475 5469
5634 5631 5629 5627 5627 5626 5624 5622 5618 5617 5614 5611 5606 5604 5601 5599 5596 5596 5595 5594 5588 5585 5580 5577 5569 5561 5551 5544 5539 5533 5528 5520 5516 5507 5498 5495 5493 5493 5487 5476 5467 5461 5456